Location: Kellogg
(38.0159°N, 90.0546°W)
Time: 15:42:57
(UTC+00:00)

Altair - Pass Details

Date: 17 September 2024
Orbit: 1501 x 1682 km, 47.2° (Epoch: 15 October)

Event Time Altitude Azimuth Distance (km) Brightness Sun altitude
Exits shadow 08:53:25 57° 284° (WNW) 1,912 7.6 -32.6°
Maximum altitude 08:55:30 69° 336° (NNW) 1,772 7.7 -32.2°
Drops below altitude 10° 09:05:41 10° 60° (ENE) 3,948 10.5 -30.5°
Sets 09:08:54 0° 63° (ENE) 4,935 11.4 -30.0°
